Brest, Belarus

11:49 PM +03 on March 29, 2017 (GMT +0300)
Brest

Weather History for UMBB - April, 2013

Change the Weather History Date:

Friday, April 26, 2013

  Actual Average Record
Temperature  
Mean Temperature 60 °F -  
Max Temperature 75 °F - - ()
Min Temperature 44 °F - - ()
Degree Days  
Heating Degree Days 6    
Growing Degree Days 10 (Base 50)    
Moisture  
Dew Point 46 °F    
Average Humidity 62    
Maximum Humidity 100    
Minimum Humidity 26    
Precipitation  
Precipitation 0.00 in - - ()
Sea Level Pressure  
Sea Level Pressure 29.98 in    
Wind  
Wind Speed 4 mph ()    
Max Wind Speed 11 mph    
Max Gust Speed 18 mph    
Visibility 4.6 miles    
Events Fog    
T = Trace of Precipitation, MM = Missing Value Source: Averaged Metar Reports

Daily Weather History Graph

Daily Weather History Graph

Search for Another Location

Airport or City:

Trip Planner

Search our weather history database for the weather conditions in past years. The results will help you decide how hot, cold, wet, or windy it might be!

Date:

Astronomy

Apr. 26, 2013 Rise Set
Actual Time 6:05 AM +03 8:42 PM +03
Civil Twilight 5:27 AM +03 9:20 PM +03
Nautical Twilight 4:38 AM +03 10:09 PM +03
Astronomical Twilight 3:40 AM +03 11:08 PM +03
Moon 9:52 PM +03 (4/26) 6:13 AM +03 (4/26)
Length of Visible Light 15h 53m
Length of Day
14h 37m
Full, 100% of the Moon is Illuminated
Apr 26
Full
May 2
Last Quarter
May 10
New
May 18
First Quarter
May 25
Full

Hourly Weather History & Observations

Time (+03) Temp. Dew Point Humidity Pressure Visibility Wind Dir Wind Speed Gust Speed Precip Events Conditions
12:00 AM 50 °F 44 °F 73% 30.17 in 4 mi West 2.2 mph - -   Mist
3:00 AM 46 °F 44 °F 88% 30.15 in 2 mi Calm Calm - -   Mist
5:00 AM 44.6 °F 44.6 °F 100% 30.12 in 0.2 mi Calm Calm - N/A Fog Fog
6:00 AM 45 °F 42 °F 86% 30.12 in 2 mi Calm Calm - -   Mist
6:00 AM 42.8 °F 42.8 °F 100% 30.09 in 0.2 mi Calm Calm - N/A Fog Fog
6:06 AM 42.8 °F 42.8 °F 100% 30.09 in 0.6 mi Calm Calm - N/A Fog Fog
6:30 AM 42.8 °F 42.8 °F 100% 30.09 in 1.1 mi East 2.2 mph - N/A   Mostly Cloudy
7:00 AM 44.6 °F 42.8 °F 93% 30.06 in 1.3 mi Calm Calm - N/A   Partly Cloudy
7:30 AM 44.6 °F 42.8 °F 93% 30.09 in - South 2.2 mph - N/A   Mostly Cloudy
8:00 AM 48.2 °F 44.6 °F 87% 30.06 in - SSE 2.2 mph - N/A   Scattered Clouds
8:30 AM 48.2 °F 44.6 °F 87% 30.06 in 3.1 mi SSE 2.2 mph - N/A   Mist
8:35 AM 48.2 °F 44.6 °F 87% 30.06 in 3.7 mi SSE 2.2 mph - N/A   Unknown
9:00 AM 55 °F 47 °F 68% 30.06 in 6 mi SSW 6.7 mph - -  
9:00 AM 55.4 °F 46.4 °F 72% 30.06 in 3.7 mi SSE 4.5 mph - N/A   Unknown
9:30 AM 55.4 °F 46.4 °F 72% 30.04 in 3.7 mi South 6.7 mph - N/A   Unknown
10:00 AM 59.0 °F 50.0 °F 72% 30.04 in 3.7 mi South 8.9 mph - N/A   Unknown
10:30 AM 59.0 °F 50.0 °F 72% 30.01 in 3.7 mi SSW 8.9 mph - N/A   Unknown
11:00 AM 62.6 °F 50.0 °F 63% 30.01 in 3.7 mi SW 8.9 mph - N/A   Unknown
11:30 AM 62.6 °F 50.0 °F 63% 30.01 in 3.7 mi SW 11.2 mph 17.9 mph N/A   Unknown
12:00 PM 65 °F 47 °F 40% 30.00 in 12 mi SW 8.9 mph - -   Clear
12:00 PM 66.2 °F 48.2 °F 52% 29.98 in 4.3 mi SW 11.2 mph 17.9 mph N/A   Unknown
12:30 PM 66.2 °F 48.2 °F 52% 29.98 in 4.3 mi SSW 11.2 mph 17.9 mph N/A   Unknown
1:00 PM 68.0 °F 46.4 °F 46% 29.95 in 4.3 mi SSW 11.2 mph 17.9 mph N/A   Unknown
1:30 PM 68.0 °F 46.4 °F 46% 29.95 in 4.3 mi SW 11.2 mph 17.9 mph N/A   Unknown
2:00 PM 69.8 °F 46.4 °F 43% 29.92 in 4.3 mi SSW 11.2 mph 17.9 mph N/A   Unknown
2:30 PM 69.8 °F 46.4 °F 43% 29.92 in 4.3 mi SW 11.2 mph 17.9 mph N/A   Unknown
3:00 PM 72 °F 49 °F 32% 29.89 in 19 mi WSW 8.9 mph - -   Partly Cloudy
3:00 PM 71.6 °F 44.6 °F 38% 29.92 in 4.3 mi WSW 11.2 mph 17.9 mph N/A   Scattered Clouds
3:30 PM 71.6 °F 44.6 °F 38% 29.89 in 3.7 mi SW 11.2 mph 17.9 mph N/A   Scattered Clouds
4:00 PM 73.4 °F 48.2 °F 41% 29.86 in 3.7 mi SW 11.2 mph 17.9 mph N/A   Scattered Clouds
4:30 PM 73.4 °F 48.2 °F 41% 29.86 in 3.7 mi SW 11.2 mph 17.9 mph N/A   Scattered Clouds
5:00 PM 73.4 °F 48.2 °F 41% 29.86 in 3.7 mi SSW 8.9 mph 15.7 mph N/A   Mostly Cloudy
5:30 PM 73.4 °F 48.2 °F 41% 29.83 in 3.7 mi SSW 8.9 mph - N/A   Mostly Cloudy
6:00 PM 74 °F 46 °F 26% 29.80 in 19 mi SSW 6.7 mph - -   Partly Cloudy
6:00 PM 75.2 °F 46.4 °F 36% 29.80 in 4.3 mi SSW 6.7 mph - N/A   Unknown
6:30 PM 75.2 °F 46.4 °F 36% 29.80 in 4.3 mi SSW 6.7 mph - N/A   Unknown
9:00 PM 70 °F 45 °F 30% 29.73 in 9 mi South 4.5 mph - -   Scattered Clouds